User: anonymous   Login
Location: Équennes
(49.7375°N, 1.9622°E)
Time: 21:54:38
(UTC+00:00)
Language:

Cosmos 1536 Rocket - Orbit

View from above orbital plane
View from above orbital plane
View from above satellite
View from above satellite

Ground track
Ground track

The orbit data is extracted from the following two-line orbital elements,

1 14700U 84013B   24113.71845450  .00001367  00000-0  15973-3 0  9998
2 14700  82.5371 338.8986 0019397   2.5376  62.3398 14.84312622150760
Epoch (UTC): 22 April 2024 17:14:34
Eccentricity: 0.0019397
inclination: 82.5371°
perigee height: 602 km
apogee height: 629 km
right ascension of ascending node: 338.8986°
argument of perigee: 2.5376°
revolutions per day: 14.84312622
mean anomaly at epoch: 62.3398°
orbit number at epoch: 15076

The dashed part of the orbit path shows where the satellite is in the earth's shadow,  

DLR